Bloomington, IN

7:59 PM EST on January 17, 2017 (GMT -0500)
Monroe County

Weather History for KBMG - January, 2004

Change the Weather History Date:

Wednesday, January 7, 2004

  Actual Average Record
Temperature  
Mean Temperature 20 °F 29 °F  
Max Temperature 27 °F 38 °F 64 °F (2008)
Min Temperature 12 °F 21 °F -9 °F (2014)
Degree Days  
Heating Degree Days 46 36  
Month to date heating degree days 252  
Since 1 July heating degree days 2325  
Cooling Degree Days 0 0  
Month to date cooling degree days 0  
Year to date cooling degree days 0  
Moisture  
Dew Point 8 °F    
Average Humidity 63    
Maximum Humidity 81    
Minimum Humidity 45    
Precipitation  
Precipitation 0.00 in 0.12 in 0.32 in (2005)
Month to date precipitation 0.92  
Year to date precipitation 0.92  
Sea Level Pressure  
Sea Level Pressure 30.50 in    
Wind  
Wind Speed 9 mph (SW)    
Max Wind Speed 13 mph    
Max Gust Speed -    
Visibility 10 miles    
Events      
T = Trace of Precipitation, MM = Missing Value Source: NWS Daily Summary

Daily Weather History Graph

Daily Weather History Graph

Search for Another Location

Airport or City:

Trip Planner

Search our weather history database for the weather conditions in past years. The results will help you decide how hot, cold, wet, or windy it might be!

Date:

Astronomy

Jan. 07, 2004 Rise Set
Actual Time 8:06 AM EST 5:39 PM EST
Civil Twilight 7:36 AM EST 6:09 PM EST
Nautical Twilight 7:03 AM EST 6:42 PM EST
Astronomical Twilight 6:30 AM EST 7:14 PM EST
Moon 5:34 PM EST (1/7) 8:26 AM EST (1/7)
Length of Visible Light 10h 32m
Length of Day
9h 33m
Full, 100% of the Moon is Illuminated
Jan 7
Full
Jan 14
Last Quarter
Jan 21
New
Jan 29
First Quarter
Feb 6
Full

Hourly Weather History & Observations

Time (EST) Temp. Windchill Dew Point Humidity Pressure Visibility Wind Dir Wind Speed Gust Speed Precip Events Conditions
12:53 AM 14.0 °F 1.2 °F 6.1 °F 71% 30.54 in 10.0 mi West 10.4 mph - N/A   Clear
1:53 AM 14.0 °F 2.9 °F 6.1 °F 71% 30.54 in 10.0 mi West 8.1 mph - N/A   Partly Cloudy
2:53 AM 12.9 °F 3.8 °F 6.1 °F 74% 30.54 in 10.0 mi WSW 5.8 mph - N/A   Clear
3:53 AM 12.9 °F 2.6 °F 6.1 °F 74% 30.54 in 10.0 mi SW 6.9 mph - N/A   Clear
4:53 AM 12.9 °F 3.8 °F 7.0 °F 77% 30.55 in 10.0 mi WSW 5.8 mph - N/A   Clear
5:53 AM 12.0 °F 2.7 °F 7.0 °F 80% 30.54 in 10.0 mi SW 5.8 mph - N/A   Clear
6:53 AM 12.0 °F 0.5 °F 7.0 °F 80% 30.55 in 10.0 mi SW 8.1 mph - N/A   Clear
7:53 AM 12.9 °F 1.6 °F 8.1 °F 81% 30.55 in 10.0 mi WSW 8.1 mph - N/A   Clear
8:53 AM 14.0 °F 6.5 °F 9.0 °F 80% 30.56 in 10.0 mi WSW 4.6 mph - N/A   Clear
9:53 AM 16.0 °F 5.3 °F 9.0 °F 74% 30.57 in 10.0 mi WSW 8.1 mph - N/A   Clear
10:53 AM 19.0 °F 6.8 °F 10.0 °F 68% 30.58 in 10.0 mi WSW 11.5 mph - N/A   Clear
11:53 AM 21.9 °F 9.8 °F 10.0 °F 60% 30.57 in 10.0 mi West 12.7 mph - N/A   Clear
12:53 PM 24.1 °F 15.2 °F 7.0 °F 48% 30.53 in 10.0 mi WSW 8.1 mph - N/A   Clear
1:53 PM 26.1 °F 15.0 °F 8.1 °F 47% 30.51 in 10.0 mi WSW 12.7 mph - N/A   Clear
2:53 PM 26.1 °F 15.0 °F 8.1 °F 47% 30.49 in 10.0 mi WSW 12.7 mph - N/A   Clear
3:53 PM 27.0 °F 17.3 °F 8.1 °F 45% 30.46 in 10.0 mi WSW 10.4 mph - N/A   Clear
4:53 PM 26.1 °F 16.8 °F 8.1 °F 47% 30.47 in 10.0 mi SW 9.2 mph - N/A   Clear
5:53 PM 23.0 °F 14.7 °F 9.0 °F 55% 30.47 in 10.0 mi SW 6.9 mph - N/A   Clear
6:53 PM 24.1 °F 16.0 °F 9.0 °F 53% 30.45 in 10.0 mi SSW 6.9 mph - N/A   Clear
7:53 PM 25.0 °F 16.3 °F 10.0 °F 53% 30.43 in 10.0 mi SSW 8.1 mph - N/A   Clear
8:53 PM 24.1 °F 14.4 °F 8.1 °F 51% 30.43 in 10.0 mi SSW 9.2 mph - N/A   Clear
9:53 PM 23.0 °F 13.1 °F 10.0 °F 58% 30.42 in 10.0 mi SSW 9.2 mph - N/A   Clear
10:53 PM 23.0 °F 11.7 °F 10.0 °F 58% 30.41 in 10.0 mi SSW 11.5 mph - N/A   Clear
11:53 PM 25.0 °F 14.2 °F 10.0 °F 53% 30.38 in 10.0 mi SSW 11.5 mph - N/A   Overcast